Regional Weather Roundup
Issued by NWS

Home | Current Version | Previous Version | Text Only | Print | Product List | Glossary Off
Versions: 1 2 3 4 5 6 7 8 9 10 11 12 13 14 15 16 17 18 19 20 21 22 23 24 25 26 27 28 29 30 31 32 33 34 35 36 37 38 39 40 41 42 43 44 45 46 47 48 49 50

000
ASUS43 KMPX 180710
RWRMN
WEATHER ROUNDUP FOR MINNESOTA
NATIONAL WEATHER SERVICE TWIN CITIES/CHANHASSEN MN
100 AM CST SUN FEB 18 2018


NOTE: "FAIR" INDICATES FEW OR NO CLOUDS BELOW 12,000 FEET WITH NO
SIGNIFICANT WEATHER AND/OR OBSTRUCTIONS TO VISIBILITY. N/A MEANS
CURRENT SKY AND/OR WEATHER CONDITIONS ARE NOT AVAILABLE.

MNZ060>063-068>070-180800-
   Twin Cities Metro

CITY           SKY/WX    TMP DP  RH WIND       PRES   REMARKS
TWIN CITIES    FAIR      19   9  65 CALM      30.05F
ST PAUL        FAIR      18   8  65 CALM      30.07F
CRYSTAL        FAIR      14   5  67 CALM      30.04F
BLAINE         FAIR      16   9  73 CALM      30.05F
LAKEVILLE        N/A     10   7  85 CALM      30.06F
EDEN PRAIRIE   FAIR      17   6  62 E5        30.02F WCI  10
SOUTH ST PAUL  FAIR      17   7  65 CALM      30.06F
LAKE ELMO      FAIR      12   5  73 NE3       30.06F
$$
MNZ001>005-007-008-013>017-022>024-027-028-180800-
   Northwest Minnesota

CITY           SKY/WX    TMP DP  RH WIND       PRES   REMARKS
BEMIDJI        CLOUDY    10   4  78 CALM      29.95S
HALLOCK        FAIR       3  -2  78 S6        29.97S WCI  -8
WARROAD        FAIR      -2  -6  84 CALM      29.96S
THIEF RVR FALL FAIR       7   0  73 E3        29.98F
CROOKSTON      FAIR      10   3  72 E3        30.00S
FOSSTON        FAIR       7   0  72 CALM      29.97R
DETROIT LAKES  FAIR       9   5  85 CALM      29.97R
MOORHEAD       FAIR      12   9  85 CALM      30.00R
PARK RAPIDS    FAIR       4  -2  76 CALM      29.94F
MAHNOMEN       PTSUNNY    9   4  82 CALM      29.96F
$$
MNZ006-009>011-018-025>026-180800-
   North Central Minnesota

CITY           SKY/WX    TMP DP  RH WIND       PRES   REMARKS
BAUDETTE       CLOUDY     0  -7  72 CALM      29.96R
FLAG ISLAND    FAIR      -9 -15  77 SE3       29.96R
INTL FALLS     MOCLDY     0  -6  76 N7        29.97R WCI -13
WASKISH        CLOUDY     7   1  78 CALM      29.98S
BIG FORK       LGT SNOW   3   0  85 CALM      29.97R
LONGVILLE      FAIR       1  -2  85 CALM      29.97S
GRAND RAPIDS   CLOUDY     9   3  77 SE3       29.99R
CRANE LAKE     FAIR       5  -4  66 CALM      30.00R
ORR            CLOUDY     3   0  85 CALM      29.95R
COOK           MOCLDY     3   0  85 CALM      29.98R
WALKER         FAIR      10   3  72 N8        29.95S WCI  -2
$$
MNZ012-019>021-037-180800-
   Northeast Minnesota

CITY           SKY/WX    TMP DP  RH WIND       PRES   REMARKS
DULUTH         FAIR       9   1  70 W7        29.98R WCI  -2
ELY            FAIR       7   1  78 W5        29.95R WCI  -2
HIBBING        FAIR       0  -4  83 CALM      29.98R
EVELETH        FAIR     N/A N/A N/A W5        29.99R
DULUTH HARBOR  FAIR      16   7  67 SW7       30.06S WCI   6
TWO HARBORS    FAIR      10   1  67 SW3       29.98R
GRAND MARAIS     N/A     17   6  62 W7        29.99R WCI   8
G MARAIS ARPRT FAIR       5  -4  66 W5        29.89R WCI  -4
$$
MNZ029>031-032-039>041-046>048-054>057-064-180800-
   West Central Minnesota

CITY           SKY/WX    TMP DP  RH WIND       PRES   REMARKS
FERGUS FALLS   FAIR      12   7  79 S9        30.02R WCI   0
WHEATON        CLOUDY    14   5  67 SE5       30.02S WCI   6
MORRIS         CLOUDY    16   5  62 SE5       30.00S WCI   9
ALEXANDRIA     FAIR      16   7  67 S7        30.00R WCI   6
ELBOW LAKE     FAIR      14   7  75 S8        30.01R WCI   3
WADENA         FAIR       5   1  85 S5        29.96S WCI  -4
GLENWOOD       FAIR      14   7  73 S3        30.02R
APPLETON       CLOUDY    19  10  68 CALM      30.02S
BENSON         CLOUDY    16   9  73 CALM      30.03R
ORTONVILLE     CLOUDY    19  12  73 SE3       30.00S
MADISON        CLOUDY    21  18  86 S3        30.02S
WILLMAR        FAIR      16   9  73 CALM      30.06R
$$
MNZ033>034-036-042>043-049>051-058-059-180800-
   Central Minnesota

CITY           SKY/WX    TMP DP  RH WIND       PRES   REMARKS
ST CLOUD       FAIR      11   5  77 CALM      30.03F
SAUK CENTRE    FAIR      11   6  77 S3        30.02R
PAYNESVILLE    FAIR      16   8  68 CALM      30.04R
AITKIN         FAIR       1  -2  85 CALM      29.99R
PINE RIVER     FAIR       1  -2  85 CALM      30.01S
BRAINERD       FAIR       4  -2  76 S3        30.00S
STAPLES        FAIR       7   1  78 CALM      29.98R
LONG PRAIRIE   FAIR       9   3  78 CALM      30.00R
LITTLE FALLS   FAIR      10   1  67 CALM      30.03R
LITCHFIELD     FAIR      16  10  79 CALM      30.06R
BUFFALO        FAIR      14   8  76 NE3       30.04F
MAPLE LAKE     FAIR      13   9  84 CALM      30.04F
HUTCHINSON     FAIR      17  11  77 S5        30.07R WCI  10
$$
MNZ037-044-045-052-053-180800-
   East Central Minnesota

CITY           SKY/WX    TMP DP  RH WIND       PRES   REMARKS
PRINCETON      FAIR      12   7  79 CALM      30.04F
MORA           FAIR      10   3  72 CALM      30.07R
CAMBRIDGE        N/A     14   3  62 CALM      30.05F
RUSH CITY      FAIR      10   4  74 CALM      30.06S
MOOSE LAKE     FAIR       7   1  78 CALM      30.00F
HINCKLEY       FAIR       9   3  78 CALM      30.04R
CLOQUET        FAIR      10   1  67 SW5       30.00S WCI   2
MCGREGOR       FAIR       9   3  78 CALM      29.99F
$$
MNZ071>073-080-081-089-090-097-098-180800-
   Southwest Minnesota

CITY           SKY/WX    TMP DP  RH WIND       PRES   REMARKS
MONTEVIDEO     MOCLDY    19  12  73 SW3       30.03S
GRANITE FALLS  CLOUDY    20  15  79 S5        30.04F WCI  13
CANBY          MOCLDY    25  19  78 SE3       30.01F
MARSHALL       CLOUDY    22  18  85 S8        30.02F WCI  12
REDWOOD FALLS  CLOUDY    18  14  84 S5        30.04R WCI  11
OLIVIA         CLOUDY    21  12  68 SE5       30.04R WCI  15
PIPESTONE      CLOUDY    21  18  86 SE6       29.95F WCI  14
WINDOM         PTCLDY    16   3  57 S3        30.03S
WORTHINGTON    CLOUDY    17  16  95 S7        30.02F WCI   8
JACKSON        CLOUDY    19  18  93 SW8       30.05R WCI   9
TRACY          PTCLDY    23  20  88 SW6       30.01S WCI  16
SLAYTON        MOCLDY    15  14  93 SE3       30.01S
$$
MNZ065>067-074>077-082>085-091>093-180800-
   South Central Minnesota

CITY           SKY/WX    TMP DP  RH WIND       PRES   REMARKS
MANKATO        FAIR      14  10  84 E3        30.07R
NEW ULM        CLOUDY    14  10  85 CALM      30.05F
ST JAMES       CLOUDY    14  12  92 S3        30.06F
FAIRMONT       CLOUDY    15  13  91 SW7       30.08R WCI   5
GLENCOE        FAIR      17  12  80 S5        30.07R WCI  10
FARIBAULT      FAIR      10   9  92 CALM      30.07R
OWATONNA       FAIR      14  10  85 SE6       30.05R WCI   5
WASECA         FAIR      12  10  92 CALM      30.09R
ALBERT LEA     FAIR      19  18  93 CALM      30.06S
$$
MNZ078>079-086>088-094>096-180800-
   Southeast Minnesota

CITY           SKY/WX    TMP DP  RH WIND       PRES   REMARKS
ROCHESTER      FAIR      15  14  95 S5        30.06S WCI   8
RED WING       FAIR      10   3  72 CALM      30.07F
STANTON        FAIR       8   3  81 CALM      30.04F
DODGE CENTER   FAIR      12  10  92 S3        30.05S
WINONA         FAIR      14  12  92 E3        30.10S
AUSTIN         FAIR      14  10  85 CALM      30.06F
PRESTON        FAIR      20  17  91 W6        30.08S WCI  12
$$
ABBREVIATIONS USED IN REMARKS
   TC - TEMPERATURES IN CELSIUS
  WCI - WIND CHILL INDEX
   HX - HEAT INDEX
  VSB - VISIBILITY
$$




USA.gov is the U.S. government's official web portal to all federal, state and local government web resources and services.